Location: Newark
(48.8656°N, 2.3211°E)
Time: 12:14:08
(UTC+00:00)

OTV 5 (USA 277) - Pass Details

Date: 20 October 2019
Orbit: 310 x 324 km, 54.5° (Epoch: 17 October)

Event Time Altitude Azimuth Distance (km) Brightness Sun altitude
Exits shadow 05:05:03 16° 221° (SW) 961 ? -12.7°
Drops below altitude 10° 05:06:40 10° 184° (S) 1,230 ? -12.4°
Sets 05:09:05 0° 161° (SSE) 2,054 ? -12.0°
